Location: Fort Wayne
(41.1310°N, 85.1290°W)
Time: 02:45:11
(UTC-04:00)

Cosmos 1000 Rocket - Visible Passes

Search period start: 27 April 2018 00:00
Search period end: 07 May 2018 00:00
Orbit: 953 x 993 km, 82.9° (Epoch: 26 April)

Date Brightness Start Highest point End Pass type
(mag) Time Alt. Az. Time Alt. Az. Time Alt. Az.
27 Apr 5.1 21:44:48 10° N 21:50:37 39° ENE 21:54:28 20° SE visible
27 Apr 5.9 23:30:24 10° NNW 23:35:45 31° W 23:39:07 19° SW visible
28 Apr 4.5 22:09:11 10° N 22:15:25 70° E 22:19:29 23° SSE visible
28 Apr 6.7 23:56:12 10° NW 00:00:01 17° W 00:03:51 10° WSW visible
29 Apr 4.8 22:33:51 10° NNW 22:40:03 67° W 22:44:32 20° S visible
30 Apr 5.3 21:13:39 10° N 21:19:12 33° ENE 21:24:46 10° SE visible
30 Apr 5.7 22:58:52 10° NNW 23:04:31 38° W 23:09:37 13° SSW visible
01 May 4.6 21:37:54 10° N 21:44:03 58° E 21:50:05 11° SSE visible
01 May 6.6 23:24:21 10° NW 23:28:51 21° W 23:33:21 10° SW visible
02 May 4.6 22:02:28 10° N 22:08:45 82° W 22:15:03 10° S visible
02 May 7.1 23:51:28 10° WNW 23:53:00 11° WNW 23:54:33 10° W visible
03 May 5.5 22:27:22 10° NNW 22:33:17 46° W 22:39:14 10° SSW visible
04 May 4.9 21:06:39 10° N 21:12:42 47° ENE 21:18:44 10° SSE visible
04 May 6.4 22:52:40 10° NNW 22:57:40 26° W 23:02:41 10° SW visible
05 May 4.5 21:31:09 10° N 21:37:26 84° E 21:43:45 10° S visible
05 May 7.0 23:18:50 10° NW 23:21:52 14° W 23:24:55 10° WSW visible
06 May 5.2 21:55:55 10° NNW 22:02:02 56° W 22:08:10 10° SSW visible
